Weather History for Miami, FL

Change the Weather History Date:

Thursday, January 10, 2013

  Actual Average Record
Temperature  
Mean Temperature 78 °F 68 °F  
Max Temperature 82 °F 76 °F 84 °F (1971)
Min Temperature 73 °F 60 °F 35 °F (1970)
Degree Days  
Heating Degree Days 0 2  
Month to date heating degree days 0 20  
Since 1 July heating degree days 16 57  
Cooling Degree Days 13 5  
Month to date cooling degree days 108 50  
Year to date cooling degree days 108 50  
Growing Degree Days 28 (Base 50)    
Moisture  
Dew Point 66 °F    
Average Humidity 68    
Maximum Humidity 82    
Minimum Humidity 54    
Precipitation  
Precipitation 0.00 in 0.05 in 0.68 in (1988)
Month to date precipitation 0.20 0.51  
Year to date precipitation 0.20 0.51  
Snow  
Snow 0.00 in - - ()
Month to date snowfall 0.0  
Since 1 July snowfall 0.0  
Snow Depth 0.00 in    
Sea Level Pressure  
Sea Level Pressure 30.25 in    
Wind  
Wind Speed 14 mph (East)    
Max Wind Speed 23 mph    
Max Gust Speed 35 mph    
Visibility 10 miles    
Events      
T = Trace of Precipitation, MM = Missing Value Source: NWS Daily Summary

Daily Weather History Graph

Daily Weather History Graph

Search for Another Location

Airport:

Trip Planner

Search our weather history database for the weather conditions in past years. The results will help you decide how hot, cold, wet, or windy it might be!

Date:

Astronomy

Jan. 10, 2013 Rise Set
Actual Time 7:09 AM EST 5:48 PM EST
Civil Twilight 6:44 AM EST 6:13 PM EST
Nautical Twilight 6:16 AM EST 6:41 PM EST
Astronomical Twilight 5:48 AM EST 7:09 PM EST
Moon 5:48 AM EST (1/10) 4:53 PM EST (1/10)
Length of Visible Light 11h 28m
Length of Day
10h 38m
Waning Crescent, 2% of the Moon is Illuminated
Jan 10
Waning Crescent
Jan 11
New
Jan 18
First Quarter
Jan 26
Full
Feb 3
Last Quarter

Hourly Weather History & Observations

Time (EST) Temp. Heat Index Dew Point Humidity Pressure Visibility Wind Dir Wind Speed Gust Speed Precip Events Conditions
12:53 AM 75.0 °F - 68.0 °F 79% 30.27 in 10.0 mi East 15.0 mph - N/A   Scattered Clouds
1:18 AM 75.2 °F - 68.0 °F 78% 30.26 in 10.0 mi East 16.1 mph - N/A   Mostly Cloudy
1:25 AM 75.2 °F - 68.0 °F 78% 30.26 in 10.0 mi East 16.1 mph - N/A   Partly Cloudy
1:53 AM 75.0 °F - 66.9 °F 76% 30.26 in 10.0 mi East 16.1 mph - N/A   Clear
2:53 AM 75.0 °F - 66.9 °F 76% 30.26 in 10.0 mi East 13.8 mph - N/A   Partly Cloudy
3:53 AM 75.0 °F - 66.9 °F 76% 30.25 in 10.0 mi East 10.4 mph - N/A   Mostly Cloudy
4:53 AM 73.9 °F - 66.0 °F 76% 30.25 in 10.0 mi East 11.5 mph - N/A   Scattered Clouds
5:53 AM 73.9 °F - 66.0 °F 76% 30.25 in 10.0 mi East 11.5 mph - N/A   Scattered Clouds
6:53 AM 73.9 °F - 64.9 °F 73% 30.27 in 10.0 mi East 10.4 mph - N/A   Partly Cloudy
7:53 AM 75.0 °F - 64.0 °F 69% 30.29 in 10.0 mi ESE 11.5 mph - N/A   Scattered Clouds
8:53 AM 78.1 °F - 64.0 °F 62% 30.30 in 10.0 mi East 15.0 mph - N/A   Partly Cloudy
9:53 AM 80.1 °F 81.7 °F 64.0 °F 58% 30.30 in 10.0 mi East 16.1 mph - N/A   Scattered Clouds
10:53 AM 80.1 °F 81.9 °F 64.9 °F 60% 30.28 in 10.0 mi East 17.3 mph - N/A   Mostly Cloudy
11:53 AM 81.0 °F 82.2 °F 63.0 °F 54% 30.25 in 10.0 mi East 20.7 mph - N/A   Scattered Clouds
12:53 PM 79.0 °F - 63.0 °F 58% 30.21 in 10.0 mi East 18.4 mph 24.2 mph N/A   Mostly Cloudy
1:53 PM 79.0 °F - 64.9 °F 62% 30.19 in 10.0 mi East 18.4 mph 26.5 mph N/A   Mostly Cloudy
2:32 PM 78.8 °F - 66.2 °F 65% 30.19 in 10.0 mi East 19.6 mph 24.2 mph N/A   Mostly Cloudy
2:53 PM 79.0 °F - 64.9 °F 62% 30.20 in 10.0 mi East 16.1 mph - N/A   Mostly Cloudy
3:53 PM 79.0 °F - 66.0 °F 64% 30.22 in 10.0 mi East 17.3 mph 24.2 mph N/A   Mostly Cloudy
4:20 PM 78.8 °F - 64.4 °F 61% 30.23 in 10.0 mi East 13.8 mph - N/A   Mostly Cloudy
4:53 PM 78.1 °F - 66.0 °F 66% 30.24 in 10.0 mi East 10.4 mph - N/A   Scattered Clouds
5:53 PM 75.9 °F - 66.0 °F 71% 30.25 in 10.0 mi East 11.5 mph - N/A   Mostly Cloudy
6:53 PM 75.9 °F - 66.0 °F 71% 30.26 in 10.0 mi ENE 10.4 mph - N/A   Mostly Cloudy
7:53 PM 75.0 °F - 66.9 °F 76% 30.26 in 10.0 mi East 12.7 mph - N/A   Scattered Clouds
8:53 PM 75.9 °F - 66.0 °F 71% 30.26 in 10.0 mi East 13.8 mph - N/A   Partly Cloudy
9:53 PM 75.9 °F - 66.0 °F 71% 30.26 in 10.0 mi East 11.5 mph - N/A   Scattered Clouds
10:53 PM 75.9 °F - 66.0 °F 71% 30.27 in 10.0 mi East 16.1 mph - N/A   Scattered Clouds
11:53 PM 75.0 °F - 66.0 °F 73% 30.26 in 10.0 mi East 16.1 mph - N/A   Scattered Clouds